Location: Zilina
(0.0000°N, 18.7333°E)
Time: 03:34:44
(UTC+01:00)

Delta 198 - Pass Details

Date: 19 February 2019
Orbit: 458 x 1021 km, 24.8° (Epoch: 25 March)

Event Time Altitude Azimuth Distance (km) Brightness Sun altitude
Rises 19:43:00 0° 241° (WSW) 3,160 8.4 -25.5°
Reaches altitude 10° 19:45:18 10° 239° (WSW) 2,322 7.4 -26.1°
Maximum altitude 19:50:56 77° 153° (SSE) 892 4.1 -27.4°
Enters shadow 19:51:07 76° 132° (SE) 898 4.1 -27.5°
